Location: Unspecified
(48.8582°N, 2.2947°E)
Time: 12:50:46
(UTC+01:00)

Daily predictions for brighter satellites

Satellite Brightness Start Highest point End
(mag) Time Altitude Azimuth Time Altitude Azimuth Time Altitude Azimuth
Cosmos 2251 Rocket 4.1 17:24:11 10° NNW 17:29:31 65° WSW 17:34:45 10° S
BREEZE-M DEB (TANK) 3.7 17:20:05 10° WSW 17:30:51 79° NNW 17:35:13 10° ENE
NOSS 3-3 (A) 4.3 17:24:51 10° SSW 17:30:55 55° ESE 17:37:29 10° NE
NOSS 3-3 (C) 4.3 17:24:58 10° SSW 17:31:01 55° ESE 17:37:35 10° NE
Cosmos 1812 3.1 17:28:37 10° SSE 17:32:17 43° E 17:35:59 10° NNE
Cosmos 2278 Rocket 2.4 17:28:05 10° S 17:33:35 57° ESE 17:39:08 10° NE
IDEFIX/ARIANE 42P 2.9 17:29:57 10° SE 17:34:49 43° ENE 17:39:43 10° N
ATLAS 2AS CENTAUR R/B 4.2 17:27:31 10° NW 17:35:14 50° WSW 17:42:29 10° S
SL-8 R/B 4.0 17:31:47 10° WSW 17:36:29 61° SSE 17:41:13 10° E
Cosmos 2366 rocket 4.0 17:31:35 10° N 17:37:57 74° E 17:44:14 10° SSE
ATLAS CENTAUR R/B 3.9 17:40:12 10° N 17:40:27 10° N 17:40:44 10° N
CZ-2C R/B 2.7 17:37:35 10° SE 17:42:30 50° ENE 17:47:31 10° N
Cosmos 1833 Rocket 2.8 17:38:41 10° NNW 17:44:16 58° ENE 17:49:49 10° SE
PAYLOAD A 3.9 17:39:32 10° SSE 17:44:27 74° ENE 17:49:36 10° N
CZ-4 R/B 1.4 17:42:41 10° SSE 17:46:46 60° ENE 17:50:48 10° N
Cosmos 2218 Rocket 4.2 17:44:32 10° N 17:50:50 81° W 17:57:02 10° S
Meteor 1-18 Rocket 4.3 17:45:12 10° S 17:50:52 71° E 17:56:41 10° NNE
Cosmos 2082 Rocket 2.2 17:49:38 10° NNW 17:55:20 78° ENE 18:01:01 10° SSE
SMAP 3.0 17:52:21 10° SSE 17:56:57 63° ENE 18:01:34 10° N
Cosmos 1666 3.9 17:57:42 10° NNE 18:00:48 22° ENE 18:03:53 10° ESE
Cosmos 407 Rocket 4.2 17:58:12 10° N 18:02:44 30° NE 18:07:16 10° ESE
Cosmos 2263 Rocket 4.4 18:03:56 10° WNW 18:07:30 17° NW 18:11:06 10° N
Cosmos 1606 Rocket 4.5 18:05:27 10° NNE 18:09:18 27° ENE 18:13:07 10° SE
CZ-3B DEB 2.4 18:06:18 10° SW 18:10:13 82° SSE 18:18:30 15° ENE
Cosmos 1821 Rocket 4.2 18:05:00 10° N 18:10:49 44° ENE 18:16:37 10° SE
SJ-12 4.0 18:09:57 10° SSE 18:14:03 82° WSW 18:18:13 10° NNW
Okean 1 3.4 18:11:50 10° S 18:15:54 84° WNW 18:20:00 10° N
AQUARIUS 4.2 18:11:32 10° SSE 18:16:02 87° WSW 18:20:34 10° NNW
Cosmos 1346 Rocket 2.6 18:13:21 10° S 18:17:13 72° E 18:21:06 10° NNE
Meteor 2-16 Rocket 4.4 18:12:02 10° N 18:18:03 59° ENE 18:24:04 10° SSE
Meteor 2-21 Rocket 4.4 18:12:13 10° N 18:18:25 72° ENE 18:24:33 10° SSE
COSMO-SKYMED 1 3.5 18:17:25 18° NE 18:19:41 27° E 18:23:24 10° SSE
BREEZE-M R/B 4.4 18:09:43 10° WSW 18:20:59 70° SSE 18:24:44 20° E
NOSS 2-1 (D) 3.9 18:17:20 10° SSW 18:21:00 42° ESE 18:23:19 22° ENE
NOSS 2-1 (C) 3.9 18:18:00 10° SSW 18:21:41 42° ESE 18:23:59 22° ENE
Cosmos 1500 3.7 18:18:41 10° NNW 18:22:29 62° W 18:26:18 10° S
Cosmos 921 Rocket 3.1 18:19:07 10° S 18:23:19 56° ESE 18:26:44 16° NNE
Timation 1 Rocket 4.4 18:17:49 10° S 18:23:39 58° ESE 18:28:30 15° NE
Cosmos 1025 Rocket 3.7 18:22:24 10° SSE 18:26:22 34° E 18:28:51 19° NE
Cosmos 1743 2.6 18:23:05 10° N 18:26:59 74° E 18:30:50 10° SSE
ERBS 2.8 18:23:46 10° NW 18:27:02 42° NNE 18:28:08 31° ENE
Meteor 1-19 Rocket 4.4 18:21:49 10° S 18:27:28 53° E 18:33:10 10° NNE
Tiangong 1 2.8 18:25:25 10° SW 18:27:59 25° S 18:29:32 17° SE
BREEZE-M DEB (TANK) 1.4 18:25:56 10° WSW 18:28:02 85° SSE 18:28:49 38° E
Cosmos 1844 Rocket 4.1 18:24:15 10° WSW 18:29:17 33° NW 18:34:23 10° NNE
Cosmos 1371 Rocket 4.4 18:24:36 10° S 18:29:40 44° ESE 18:33:09 19° NE
Cosmos 1140 Rocket 4.5 18:26:35 10° N 18:30:45 24° NE 18:31:25 23° ENE
Meteor 2-9 Rocket 4.2 18:28:29 10° N 18:33:50 54° ENE 18:39:02 10° SSE
CORIOLIS 4.4 18:29:08 10° S 18:34:31 72° WSW 18:39:55 10° NNW
Cosmos 2369 Rocket 3.9 18:33:41 10° SE 18:35:24 14° ESE 18:35:24 14° ESE
NOSS 2-1 (E) 3.6 18:36:29 10° SSW 18:40:20 57° SE 18:42:12 31° ENE
Meteor 1-15 Rocket 4.4 18:35:26 10° N 18:41:12 52° ENE 18:46:52 10° SSE
SPOT 3 Rocket 4.4 18:36:12 10° S 18:41:16 54° W 18:46:20 10° NNW
ISS -3.0 18:39:04 10° WNW 18:42:19 51° N 18:42:53 44° NE
Nadezhda 3 Rocket 4.0 18:37:31 10° S 18:43:46 87° E 18:50:08 10° N
RESURS DK-1 4.2 18:42:39 10° N 18:44:19 17° NNE 18:44:19 17° NNE
YAOGAN 1 3.7 18:42:42 10° S 18:46:52 47° W 18:51:04 10° NNW
Cosmos 2058 Rocket 3.5 18:42:46 10° N 18:47:00 39° ENE 18:51:10 10° SE
Meteor 2-4 Rocket 3.6 18:43:09 10° S 18:48:20 55° E 18:52:33 16° NNE
Meteor 1-23 Rocket 4.4 18:43:35 10° SSE 18:49:02 50° E 18:53:10 17° NNE
Cosmos 1484 Rocket 2.6 18:48:06 10° SSE 18:51:50 85° WSW 18:55:35 10° NNW
Meteor 1-13 Rocket 4.3 18:46:18 10° SSW 18:52:04 85° W 18:58:00 10° N
USA 234 3.3 18:49:44 27° ENE 18:53:29 65° SE 18:59:57 10° SW
Cosmos 1190 Rocket 3.9 18:50:20 10° NNW 18:55:38 85° ENE 19:00:51 10° SSE
Intercosmos 25 4.2 18:58:23 10° NNW 19:01:25 41° W 19:04:38 10° SSW
METEOR-M 4.1 18:58:41 10° SE 19:03:53 56° ENE 19:09:08 10° N
Cosmos 1727 Rocket 4.3 18:59:44 10° SSE 19:05:27 41° E 19:06:51 36° ENE
SKYMED 2 3.4 19:06:01 33° NNE 19:07:57 81° ESE 19:12:17 10° SSW
Thor Agena Rocket 4.4 19:04:07 10° N 19:09:09 49° WNW 19:14:13 10° SW
FALCON 9 R/B 4.5 18:45:45 10° WSW 19:09:17 40° SSW 19:15:11 17° SE
Cosmos 2297 4.2 19:04:40 10° SW 19:10:13 58° WNW 19:14:07 20° NNE
GEOS 3 Rocket 3.5 19:08:45 39° ESE 19:10:34 66° NE 19:15:41 10° NW
NOSS 3-4 (A) 4.3 19:04:55 10° NW 19:11:45 60° WSW 19:18:59 10° SSE
NOSS 3-4 (C) 4.3 19:05:01 10° NW 19:11:50 60° WSW 19:19:06 10° SSE
Okean 2 3.4 19:07:54 10° S 19:11:38 59° SE 19:11:38 59° SE
BREEZE M DEB (TANK) 2.8 19:08:28 10° SW 19:14:22 45° SSE 19:14:24 45° SSE
Meteor 2-8 Rocket 4.3 19:10:36 10° S 19:16:39 75° E 19:22:39 11° NNE
Cosmos 2278 Rocket 3.8 19:13:04 10° WSW 19:18:01 30° NW 19:22:19 13° N
SL-8 R/B 3.5 19:14:10 10° W 19:18:58 87° S 19:19:35 68° E
Cosmos 1934 Rocket 4.1 19:13:55 10° NNW 19:20:08 75° W 19:26:25 10° S
DMSP B5D1-3 4.4 19:18:58 35° NNE 19:21:14 79° ESE 19:26:21 10° SSW
ATLAS CENTAUR R/B 3.9 19:19:21 10° N 19:19:47 11° N 19:19:47 11° N
BREEZE-M DEB (TANK) 3.3 19:18:32 10° WNW 19:23:59 76° WSW 19:23:59 76° WSW
Cosmos 1892 Rocket 3.5 19:21:40 10° S 19:25:34 69° SSE 19:25:34 69° SSE
Cosmos 1726 Rocket 3.9 19:23:01 10° NNW 19:27:28 65° W 19:31:52 10° S
Cosmos 1666 4.4 19:33:03 10° NNW 19:36:33 33° W 19:40:03 10° SSW
Cosmos 1339 Rocket 4.4 19:33:47 10° S 19:39:16 61° ESE 19:39:16 61° ESE
Resurs 01 Rocket 4.2 19:47:47 11° N 19:47:47 11° N 19:47:56 10° N
Cosmos 2227 Rocket 4.5 19:42:01 10° N 19:42:15 10° N 19:42:15 10° N
Cosmos 407 Rocket 4.5 19:40:01 10° NW 19:44:55 45° WSW 19:49:49 10° S
Spot 2 Rocket 4.4 19:47:44 37° N 19:47:44 37° N 19:50:50 10° NNW
Cosmos 2056 Rocket 4.1 19:47:29 10° SW 19:52:43 56° WNW 19:53:56 45° NNW
COSMO-SKYMED 1 4.0 19:54:38 29° NNW 19:55:54 35° WNW 19:59:50 10° SW
Cosmos 1954 Rocket 4.5 19:56:11 10° NNW 20:01:15 56° WSW 20:01:57 52° SW
FengYun 1-2 T 4.3 20:03:27 75° WNW 20:03:27 75° WNW 20:08:47 10° NNW
Cosmos 1140 Rocket 4.4 20:07:54 10° NNW 20:11:30 42° NW 20:11:30 42° NW
BREEZE-M DEB (TANK) 3.8 20:03:06 10° WNW 20:16:51 70° NNW 20:16:51 70° NNW
Cosmos 2369 Rocket 3.5 20:14:21 10° SSW 20:17:16 32° SSW 20:17:16 32° SSW
USA 234 3.6 20:37:05 57° NW 20:37:05 57° NW 20:42:52 10° W
CZ-3B DEB 3.8 20:38:32 10° WNW 20:45:15 63° N 20:46:08 61° NNE
